Home > Weather > Pago Pago > Past weeks

Flag for American Samoa Past Weather in Pago Pago, American Samoa — Yesterday and Last 2 Weeks

Now
86 °F

Scattered clouds.


Feels Like: 102 °F
Forecast: 80 / 85 °F
Wind: 18 mph from East

Location: Pago Pago / Int. Airp.

Current Time: Aug 29, 2016 at 2:31:28 PM

Latest Report: Aug 29, 2016 at 1:50 PM


Visibility: 12 mi

Pressure: 29.91 "Hg

Humidity: 85%

Dew Point: 81 °F

Location of Pago PagoLocation

Past Weather in Pago Pago — Graph

°F

Pago Pago Temperature Yesterday

Maximum temperature yesterday: 86 °F (at 11:50 AM)
Minimum temperature yesterday: 79 °F (at 1:51 AM)
Average temperature yesterday: 81 °F

High & Low Weather Summary for the Past Weeks

 TemperatureHumidityPressure
High87 °F (Aug 17, 1:50 PM)100% (Aug 14, 7:50 PM)30.07 "Hg (Aug 14, 7:50 PM)
Low73 °F (Aug 23, 7:50 AM)67% (Aug 25, 10:50 AM)29.77 "Hg (Aug 18, 3:51 PM)
Average80 °F91%29.89 "Hg
* Reported Aug 14 12:50 PM — Aug 29 12:50 PM, Pago Pago, Weather by CustomWeather, © 2016

Note: Actual official high and low records may vary slightly from our data, if they occured in-between our weather recording intervals... More about our weather records

Advertising

Pago Pago Weather History for the Previous 24 Hours

Scroll right to see more
 ConditionsComfort  
Time TempWeatherWind HumidityBarometerVisibility
12:50 PM
Mon, Aug 29
86 °FBroken clouds.16 mph82%29.93 "Hg12 mi
12:00 PM85 °FBroken clouds.15 mph85%29.96 "Hg12 mi
11:50 AM85 °FBroken clouds.15 mph85%29.96 "Hg12 mi
11:00 AM86 °FPassing clouds.18 mph82%29.97 "Hg12 mi
10:50 AM86 °FPassing clouds.18 mph82%29.97 "Hg12 mi
10:00 AM85 °FPassing clouds.17 mph83%29.97 "Hg12 mi
9:50 AM85 °FPassing clouds.17 mph83%29.97 "Hg12 mi
8:50 AM83 °FScattered clouds.16 mph88%29.96 "Hg12 mi
8:00 AM82 °FScattered clouds.18 mph90%29.96 "Hg12 mi
7:51 AM82 °FScattered clouds.18 mph90%29.96 "Hg12 mi
6:50 AM81 °FBroken clouds.18 mph94%29.94 "Hg12 mi
5:51 AM79 °FPassing clouds.15 mph95%29.92 "Hg10 mi
3:53 AM79 °FPassing clouds.15 mph94%29.90 "Hg10 mi
2:51 AM80 °FPassing clouds.16 mph94%29.91 "Hg10 mi
1:51 AM80 °FPassing clouds.16 mph94%29.94 "Hg10 mi
12:50 AM80 °FPassing clouds.15 mph93%29.96 "Hg10 mi
11:50 PM
Sun, Aug 28
80 °FPartly cloudy.16 mph93%29.98 "Hg10 mi
10:50 PM80 °FPartly cloudy.15 mph92%29.98 "Hg10 mi
9:50 PM80 °FPartly cloudy.16 mph92%29.98 "Hg10 mi
8:50 PM80 °FPartly cloudy.17 mph94%29.98 "Hg10 mi
7:50 PM80 °FPassing clouds.16 mph92%29.97 "Hg10 mi
7:00 PM80 °FPassing clouds.14 mph91%29.95 "Hg10 mi
6:50 PM80 °FPassing clouds.14 mph91%29.95 "Hg10 mi
5:50 PM81 °FBroken clouds.16 mph89%29.94 "Hg12 mi
4:50 PM82 °FBroken clouds.15 mph89%29.93 "Hg12 mi
4:00 PM83 °FPartly sunny.15 mph86%29.91 "Hg12 mi
3:50 PM83 °FPartly sunny.15 mph86%29.91 "Hg12 mi
2:50 PM85 °FPartly sunny.12 mph84%29.90 "Hg12 mi
Weather by CustomWeather, © 2016

See weather overviewHow to use our weather pages